Home   Weather   Sperryville   Past weeks
Flag for USA

Past Weather in Sperryville, Virginia, USA — November 2018

Now
90 °F

Sunny.


Feels Like: 93 °F
Forecast: 90 / 67 °F
Wind: No wind

Location: warren County Airport

Current Time: Jul 15, 2019 at 7:06:29 pm

Latest Report: Jul 15, 2019 at 6:15 pm


Visibility: N/A

Pressure: 30.04 "Hg

Humidity: 49%

Dew Point: 68 °F

Location of SperryvilleLocation

November 2018 Weather in Sperryville — Graph

°F

High & Low Weather Summary for November 2018

 TemperatureHumidityPressure
High77 °F (Nov 1, 1:35 pm)100% (Nov 2, 4:35 am)30.56 "Hg (Nov 2, 4:35 am)
Low25 °F (Nov 11, 4:35 am)33% (Nov 10, 1:55 pm)29.42 "Hg (Nov 26, 2:15 pm)
Average41 °F74%30.08 "Hg
* Reported Nov 1 12:15 am — Nov 30 11:55 pm, Sperryville. Weather by CustomWeather, © 2019

Note: Actual official high and low records may vary slightly from our data, if they occured in-between our weather recording intervals... More about our weather records

Advertising

Sperryville Weather History for November 1, 2018

Scroll right to see more
 ConditionsComfort  
Time TempWeatherWind HumidityBarometerVisibility
12:15 am
Thu, Nov 1
64 °FClear.3 mph64%29.92 "Hg10 mi
12:35 am63 °FPassing clouds.5 mph68%29.91 "Hg10 mi
12:55 am63 °FPassing clouds.5 mph68%29.91 "Hg10 mi
1:15 am63 °FClear.5 mph68%29.91 "Hg10 mi
1:35 am63 °FClear.3 mph68%29.91 "Hg10 mi
1:55 am63 °FClear.7 mph68%29.90 "Hg10 mi
2:35 am64 °FClear.7 mph64%29.88 "Hg10 mi
2:55 am64 °FClear.5 mph64%29.88 "Hg10 mi
3:35 am63 °FClear.7 mph68%29.88 "Hg10 mi
3:55 am63 °FClear.6 mph68%29.87 "Hg10 mi
4:15 am63 °FClear.6 mph68%29.87 "Hg10 mi
4:35 am63 °FClear.6 mph68%29.87 "Hg10 mi
4:55 am61 °FClear.5 mph72%29.87 "Hg10 mi
5:15 am61 °FClear.6 mph72%29.88 "Hg10 mi
5:35 am59 °FClear.5 mph77%29.88 "Hg10 mi
5:55 am59 °FClear.3 mph77%29.88 "Hg10 mi
6:15 am59 °FClear.5 mph77%29.88 "Hg10 mi
6:35 am59 °FClear.5 mph77%29.87 "Hg10 mi
6:55 am59 °FClear.5 mph77%29.87 "Hg10 mi
7:15 am59 °FClear.3 mph77%29.88 "Hg10 mi
7:35 am61 °FClear.5 mph72%29.88 "Hg10 mi
7:55 am61 °FSunny.3 mph72%29.88 "Hg10 mi
8:15 am61 °FSunny.3 mph72%29.88 "Hg10 mi
8:35 am61 °FSunny.6 mph77%29.88 "Hg10 mi
8:55 am61 °FSunny.5 mph77%29.88 "Hg10 mi
9:35 am61 °FSunny.3 mph77%29.88 "Hg10 mi
9:55 am63 °FSunny.5 mph73%29.88 "Hg10 mi
10:15 am64 °FSunny.8 mph68%29.87 "Hg10 mi
10:35 am68 °FSunny.8 mph60%29.86 "Hg10 mi
10:55 am70 °FSunny.8 mph57%29.85 "Hg10 mi
11:15 am72 °FSunny.13 mph53%29.85 "Hg10 mi
11:35 am72 °FSunny.12 mph53%29.85 "Hg10 mi
11:55 am72 °FSunny.8 mph53%29.84 "Hg10 mi
12:15 pm72 °FSunny.7 mph53%29.84 "Hg10 mi
12:35 pm73 °FSunny.7 mph50%29.83 "Hg10 mi
12:55 pm73 °FSunny.7 mph47%29.82 "Hg10 mi
1:15 pm73 °FSunny.7 mph47%29.82 "Hg10 mi
1:35 pm77 °FSunny.5 mph42%29.80 "Hg10 mi
2:35 pm73 °FSunny.8 mph50%29.79 "Hg10 mi
2:55 pm75 °FSunny.13 mph44%29.79 "Hg10 mi
3:15 pm73 °FSunny.13 mph44%29.78 "Hg10 mi
3:35 pm73 °FSunny.13 mph44%29.78 "Hg10 mi
3:55 pm73 °FSunny.8 mph47%29.77 "Hg10 mi
4:15 pm72 °FSunny.6 mph53%29.76 "Hg10 mi
4:35 pm70 °FSunny.8 mph57%29.76 "Hg10 mi
4:55 pm70 °FSunny.9 mph53%29.76 "Hg10 mi
5:15 pm70 °FSunny.12 mph53%29.76 "Hg10 mi
5:35 pm70 °FSunny.14 mph53%29.76 "Hg10 mi
5:55 pm68 °FSunny.8 mph60%29.77 "Hg10 mi
6:15 pm68 °FClear.9 mph60%29.76 "Hg10 mi
6:35 pm68 °FClear.6 mph60%29.76 "Hg10 mi
6:55 pm66 °FPassing clouds.3 mph64%29.75 "Hg10 mi
7:35 pm66 °FPassing clouds.6 mph68%29.74 "Hg10 mi
7:55 pm66 °FPassing clouds.8 mph68%29.74 "Hg10 mi
8:15 pm66 °FOvercast.9 mph73%29.73 "Hg10 mi
8:55 pm68 °FOvercast.10 mph73%29.70 "Hg10 mi
9:35 pm68 °FPassing clouds.9 mph73%29.68 "Hg10 mi
9:55 pm68 °FOvercast.7 mph73%29.68 "Hg10 mi
10:35 pm68 °FOvercast.3 mph73%29.68 "Hg10 mi
10:55 pm68 °FOvercast.7 mph78%29.69 "Hg10 mi
11:15 pm68 °FMostly cloudy.5 mph78%29.68 "Hg10 mi
11:35 pm68 °FOvercast.No wind78%29.66 "Hg10 mi
11:55 pm68 °FMostly cloudy.3 mph78%29.66 "Hg10 mi
Weather by CustomWeather, © 2019

See weather overview

LIVE PARTIAL LUNAR ECLIPSE – Watch the eclipse as it happens